• In Deutschland
  • Länderverzeichnis
  • Für 7 Tage
  • Wassertemperatur
  • Satellitenkarten
  • Wetterkarte
  • Widgets
  • user-avatar
    Anmelden

    Stündliche Wetter Newberg

    Heute, 16 Juli, Montag

    Zeit Temperatur Niederschläge Wind Luftdruck Luftfeuchtigkeit
    00:00 +22°C° 0 mm 1 m/S 747 mmHg 64%
    01:00 +21°C° 0 mm 1 m/S 747 mmHg 65%
    02:00 +21°C° 0 mm 1 m/S 747 mmHg 65%
    03:00 +20°C° 0 mm 1 m/S 748 mmHg 66%
    04:00 +18°C° 0 mm 0 m/S 748 mmHg 66%
    05:00 +19°C° 0 mm 0 m/S 748 mmHg 62%
    06:00 +21°C° 0 mm 0 m/S 748 mmHg 59%
    07:00 +22°C° 0 mm 0 m/S 748 mmHg 55%
    08:00 +24°C° 0 mm 0 m/S 748 mmHg 49%
    09:00 +27°C° 0 mm 0 m/S 748 mmHg 44%
    10:00 +31°C° 0 mm 1 m/S 748 mmHg 38%
    11:00 +33°C° 0 mm 1 m/S 748 mmHg 35%
    12:00 +34°C° 0 mm 1 m/S 748 mmHg 32%
    13:00 +36°C° 0 mm 1 m/S 748 mmHg 29%
    14:00 +36°C° 0 mm 1 m/S 747 mmHg 28%
    15:00 +36°C° 0 mm 1 m/S 747 mmHg 28%
    16:00 +36°C° 0 mm 1 m/S 747 mmHg 27%
    17:00 +35°C° 0 mm 2 m/S 747 mmHg 34%
    18:00 +31°C° 0 mm 2 m/S 747 mmHg 40%
    19:00 +29°C° 0 mm 2 m/S 747 mmHg 47%
    20:00 +27°C° 0 mm 2 m/S 747 mmHg 52%
    21:00 +25°C° 0 mm 1 m/S 747 mmHg 57%
    22:00 +22°C° 0 mm 1 m/S 748 mmHg 63%
    23:00 +21°C° 0 mm 1 m/S 748 mmHg 63%

    Morgen, 17 Juli, Dienstag

    Zeit Temperatur Niederschläge Wind Luftdruck Luftfeuchtigkeit
    00:00 +21°C° 0 mm 1 m/S 748 mmHg 63%
    01:00 +20°C° 0 mm 1 m/S 748 mmHg 64%
    02:00 +20°C° 0 mm 1 m/S 748 mmHg 64%
    03:00 +19°C° 0 mm 1 m/S 748 mmHg 64%
    04:00 +19°C° 0 mm 1 m/S 748 mmHg 64%
    05:00 +18°C° 0 mm 0 m/S 748 mmHg 60%
    06:00 +20°C° 0 mm 0 m/S 748 mmHg 57%
    07:00 +21°C° 0 mm 0 m/S 748 mmHg 54%
    08:00 +23°C° 0 mm 0 m/S 748 mmHg 48%
    09:00 +28°C° 0 mm 1 m/S 748 mmHg 43%
    10:00 +30°C° 0 mm 1 m/S 748 mmHg 38%
    11:00 +31°C° 0 mm 1 m/S 748 mmHg 34%
    12:00 +33°C° 0 mm 1 m/S 748 mmHg 30%
    13:00 +35°C° 0 mm 2 m/S 748 mmHg 26%
    14:00 +35°C° 0 mm 2 m/S 748 mmHg 26%
    15:00 +35°C° 0 mm 2 m/S 748 mmHg 26%
    16:00 +34°C° 0 mm 2 m/S 748 mmHg 26%
    17:00 +31°C° 0 mm 2 m/S 748 mmHg 35%
    18:00 +28°C° 0 mm 3 m/S 748 mmHg 44%
    19:00 +26°C° 0 mm 3 m/S 749 mmHg 53%
    20:00 +24°C° 0 mm 2 m/S 749 mmHg 61%
    21:00 +20°C° 0 mm 2 m/S 749 mmHg 70%
    22:00 +19°C° 0 mm 1 m/S 750 mmHg 79%
    23:00 +18°C° 0 mm 1 m/S 750 mmHg 81%

    übermorgen, 18 Juli, Mittwoch

    Zeit Temperatur Niederschläge Wind Luftdruck Luftfeuchtigkeit
    00:00 +18°C° 0 mm 1 m/S 750 mmHg 84%
    01:00 +16°C° 0 mm 1 m/S 750 mmHg 86%
    02:00 +16°C° 0 mm 1 m/S 750 mmHg 87%
    03:00 +16°C° 0 mm 1 m/S 750 mmHg 88%
    04:00 +15°C° 0 mm 1 m/S 750 mmHg 89%
    05:00 +16°C° 0 mm 1 m/S 750 mmHg 84%
    06:00 +19°C° 0 mm 1 m/S 751 mmHg 79%
    07:00 +20°C° 0 mm 1 m/S 751 mmHg 75%
    08:00 +22°C° 0 mm 1 m/S 751 mmHg 67%
    09:00 +24°C° 0 mm 1 m/S 751 mmHg 59%
    10:00 +26°C° 0 mm 2 m/S 751 mmHg 51%
    11:00 +27°C° 0 mm 2 m/S 751 mmHg 47%
    12:00 +28°C° 0 mm 2 m/S 751 mmHg 44%
    13:00 +30°C° 0 mm 2 m/S 751 mmHg 41%
    14:00 +30°C° 0 mm 3 m/S 750 mmHg 41%
    15:00 +30°C° 0 mm 3 m/S 750 mmHg 41%
    16:00 +29°C° 0 mm 3 m/S 750 mmHg 41%
    17:00 +28°C° 0 mm 3 m/S 750 mmHg 47%
    18:00 +26°C° 0 mm 3 m/S 750 mmHg 52%
    19:00 +24°C° 0 mm 3 m/S 750 mmHg 58%
    20:00 +21°C° 0 mm 2 m/S 750 mmHg 66%
    21:00 +19°C° 0 mm 2 m/S 751 mmHg 74%
    22:00 +17°C° 0 mm 2 m/S 751 mmHg 81%
    23:00 +16°C° 0 mm 2 m/S 751 mmHg 83%

    19 Juli, Donnerstag

    Zeit Temperatur Niederschläge Wind Luftdruck Luftfeuchtigkeit
    00:00 +15°C° 0 mm 1 m/S 751 mmHg 84%
    01:00 +14°C° 0 mm 1 m/S 751 mmHg 86%
    02:00 +14°C° 0 mm 1 m/S 751 mmHg 87%
    03:00 +13°C° 0 mm 1 m/S 751 mmHg 88%
    04:00 +13°C° 0 mm 1 m/S 751 mmHg 89%
    05:00 +14°C° 0 mm 1 m/S 751 mmHg 84%
    06:00 +15°C° 0 mm 1 m/S 751 mmHg 80%
    07:00 +16°C° 0 mm 1 m/S 751 mmHg 75%
    08:00 +18°C° 0 mm 2 m/S 751 mmHg 66%
    09:00 +20°C° 0 mm 2 m/S 750 mmHg 56%
    10:00 +24°C° 0 mm 2 m/S 750 mmHg 47%
    11:00 +25°C° 0 mm 2 m/S 750 mmHg 42%
    12:00 +27°C° 0 mm 2 m/S 750 mmHg 37%
    13:00 +28°C° 0 mm 2 m/S 750 mmHg 33%
    14:00 +28°C° 0 mm 2 m/S 750 mmHg 33%
    15:00 +28°C° 0 mm 3 m/S 749 mmHg 34%
    16:00 +29°C° 0 mm 3 m/S 749 mmHg 35%
    17:00 +27°C° 0 mm 3 m/S 749 mmHg 41%
    18:00 +25°C° 0 mm 3 m/S 749 mmHg 47%
    19:00 +24°C° 0 mm 3 m/S 749 mmHg 54%
    20:00 +20°C° 0 mm 2 m/S 749 mmHg 62%
    21:00 +18°C° 0 mm 2 m/S 749 mmHg 70%
    22:00 +16°C° 0 mm 2 m/S 750 mmHg 78%
    23:00 +15°C° 0 mm 2 m/S 750 mmHg 80%

    20 Juli, Freitag

    Zeit Temperatur Niederschläge Wind Luftdruck Luftfeuchtigkeit
    00:00 +14°C° 0 mm 1 m/S 750 mmHg 83%
    01:00 +13°C° 0 mm 1 m/S 749 mmHg 85%
    02:00 +13°C° 0 mm 1 m/S 749 mmHg 86%
    03:00 +13°C° 0 mm 1 m/S 749 mmHg 87%
    04:00 +12°C° 0 mm 1 m/S 749 mmHg 88%
    05:00 +14°C° 0 mm 1 m/S 749 mmHg 83%
    06:00 +15°C° 0 mm 1 m/S 749 mmHg 77%
    07:00 +16°C° 0 mm 1 m/S 749 mmHg 72%
    08:00 +20°C° 0 mm 1 m/S 749 mmHg 62%
    09:00 +21°C° 0 mm 2 m/S 749 mmHg 53%
    10:00 +25°C° 0 mm 2 m/S 749 mmHg 43%
    11:00 +26°C° 0 mm 2 m/S 749 mmHg 39%
    12:00 +28°C° 0 mm 3 m/S 749 mmHg 35%
    13:00 +29°C° 0 mm 3 m/S 749 mmHg 31%
    14:00 +29°C° 0 mm 3 m/S 749 mmHg 31%
    15:00 +29°C° 0 mm 3 m/S 749 mmHg 30%
    16:00 +29°C° 0 mm 4 m/S 749 mmHg 30%
    17:00 +27°C° 0 mm 3 m/S 749 mmHg 35%
    18:00 +25°C° 0 mm 3 m/S 749 mmHg 40%
    19:00 +22°C° 0 mm 3 m/S 749 mmHg 44%
    20:00 +20°C° 0 mm 2 m/S 749 mmHg 53%
    21:00 +17°C° 0 mm 2 m/S 750 mmHg 61%
    22:00 +15°C° 0 mm 2 m/S 750 mmHg 69%
    23:00 +14°C° 0 mm 1 m/S 750 mmHg 72%

    21 Juli, Samstag

    Zeit Temperatur Niederschläge Wind Luftdruck Luftfeuchtigkeit
    00:00 +13°C° 0 mm 1 m/S 750 mmHg 75%
    01:00 +12°C° 0 mm 1 m/S 750 mmHg 78%
    02:00 +12°C° 0 mm 1 m/S 750 mmHg 80%
    03:00 +12°C° 0 mm 1 m/S 750 mmHg 81%
    04:00 +11°C° 0 mm 1 m/S 750 mmHg 82%
    05:00 +13°C° 0 mm 1 m/S 750 mmHg 78%
    06:00 +14°C° 0 mm 1 m/S 751 mmHg 73%
    07:00 +16°C° 0 mm 1 m/S 751 mmHg 68%
    08:00 +20°C° 0 mm 1 m/S 751 mmHg 59%
    09:00 +22°C° 0 mm 1 m/S 750 mmHg 49%
    10:00 +25°C° 0 mm 2 m/S 750 mmHg 40%
    11:00 +26°C° 0 mm 2 m/S 750 mmHg 36%
    12:00 +28°C° 0 mm 2 m/S 750 mmHg 32%
    13:00 +30°C° 0 mm 2 m/S 750 mmHg 29%
    14:00 +30°C° 0 mm 3 m/S 750 mmHg 28%
    15:00 +30°C° 0 mm 3 m/S 750 mmHg 28%
    16:00 +30°C° 0 mm 4 m/S 750 mmHg 28%
    17:00 +28°C° 0 mm 3 m/S 750 mmHg 35%
    18:00 +26°C° 0 mm 3 m/S 750 mmHg 42%
    19:00 +22°C° 0 mm 3 m/S 750 mmHg 49%
    20:00 +20°C° 0 mm 2 m/S 750 mmHg 58%
    21:00 +18°C° 0 mm 2 m/S 751 mmHg 68%
    22:00 +15°C° 0 mm 2 m/S 751 mmHg 77%
    23:00 +15°C° 0 mm 1 m/S 751 mmHg 80%
    Mehr zeigen